Location: Mount Wilson Observatory
(34.2257°N, 118.0571°W)
Time: 10:32:44
(UTC-07:00)

ATLAS 3B CENTAUR R/B - Visible Passes

Search period start: 25 May 2015 00:00
Search period end: 04 June 2015 00:00
Orbit: 222 x 7671 km, 28.1° (Epoch: 25 May)

Date Brightness Start Highest point End Pass type
(mag) Time Alt. Az. Time Alt. Az. Time Alt. Az.
25 May 4.9 01:40:57 10° W 01:49:05 27° W 01:49:05 27° W visible
25 May 5.4 21:09:45 10° WSW 21:53:56 63° S 22:07:01 13° E visible
26 May 4.1 00:43:25 10° W 01:01:00 51° WSW 01:01:00 51° WSW visible
26 May 5.7 20:09:41 10° SW 20:58:47 60° SSE 21:16:12 10° E visible
26 May 3.8 23:43:48 10° W 00:11:17 67° S 00:12:35 64° SSE visible
27 May 5.9 19:10:47 10° SW 20:02:06 56° SSE 20:24:03 10° E visible
27 May 4.4 22:42:25 10° WSW 23:18:04 70° S 23:23:51 39° ESE visible
28 May 5.2 02:12:20 10° W 02:17:44 20° W 02:17:44 20° W visible
28 May 5.1 21:40:10 10° WSW 22:23:42 70° S 22:34:48 19° E visible
29 May 4.4 01:14:11 10° W 01:28:39 40° WSW 01:28:39 40° WSW visible
29 May 5.6 20:38:14 10° WSW 21:27:58 68° S 21:44:21 10° E visible
30 May 3.9 00:13:59 10° W 00:39:15 62° SSW 00:39:15 62° SSW visible
30 May 5.9 19:37:28 10° SW 20:30:39 65° SSE 20:51:32 10° E visible
30 May 4.2 23:11:46 10° W 23:45:27 70° S 23:49:33 49° SE visible
31 May 5.5 02:41:06 10° W 02:43:19 13° W 02:43:19 13° W visible
31 May 4.9 22:08:14 10° WSW 22:50:28 73° S 22:59:32 27° ESE visible
01 Jun 4.9 01:41:58 10° W 01:53:16 30° WSW 01:53:16 30° WSW visible
01 Jun 5.5 21:04:38 10° WSW 21:54:06 73° S 22:09:14 12° E visible
02 Jun 4.2 00:41:03 10° W 01:02:56 51° SW 01:02:56 51° SW visible
02 Jun 5.8 20:02:06 10° WSW 20:56:05 72° S 21:16:06 10° E visible
02 Jun 4.1 23:38:04 10° W 00:09:49 64° SSW 00:12:18 56° SSE visible
03 Jun 4.6 22:33:30 10° W 23:14:14 71° S 23:21:22 37° ESE visible
